STARLINK-35446

Last updated on Fri Dec 12 2025 00:02:05 GMT+0000 (Coordinated Universal Time)

1 66432U 25259L 25345.56055974 .00066956 00000+0 15946-2 0 9992 2 66432 42.9989 54.6011 0001507 245.2135 114.8565 15.40728148 5988
UTC large
Height (km)
Speed (km/s)
/
Latitude / Longitude
Inclination (degrees)
Orbital Period (minutes)
Azimuth
Elevation
Range (km)
Doppler Factor

Next 0 passes for location: London (51.5072 / 0.1276)

Sorry there are no passes over London.